TimeCDT,TemperatureF,Dew PointF,Humidity,Sea Level PressureIn,VisibilityMPH,Wind Direction,Wind SpeedMPH,Gust SpeedMPH,PrecipitationIn,Events,Conditions,WindDirDegrees,DateUTC
12:35 AM,44.6,44.6,100,29.74,10.0,Calm,Calm,-,N/A,,Overcast,0,2012-10-14 05:35:00
12:55 AM,44.6,44.6,100,29.74,10.0,Calm,Calm,-,N/A,,Overcast,0,2012-10-14 05:55:00
1:15 AM,44.6,44.6,100,29.74,10.0,Calm,Calm,-,N/A,,Overcast,0,2012-10-14 06:15:00
1:35 AM,44.6,44.6,100,29.74,10.0,ENE,4.6,-,N/A,,Overcast,70,2012-10-14 06:35:00
1:55 AM,44.6,44.6,100,29.74,10.0,ENE,4.6,-,N/A,,Overcast,60,2012-10-14 06:55:00
2:15 AM,44.6,44.6,100,29.74,10.0,ENE,4.6,-,N/A,,Overcast,60,2012-10-14 07:15:00
2:35 AM,44.6,44.6,100,29.74,10.0,ENE,3.5,-,N/A,,Overcast,60,2012-10-14 07:35:00
2:55 AM,44.6,44.6,100,29.74,10.0,ENE,4.6,-,N/A,,Overcast,60,2012-10-14 07:55:00
3:15 AM,44.6,44.6,100,29.74,10.0,Calm,Calm,-,N/A,,Overcast,0,2012-10-14 08:15:00
3:35 AM,44.6,44.6,100,29.73,10.0,ENE,3.5,-,N/A,,Overcast,60,2012-10-14 08:35:00
3:55 AM,44.6,44.6,100,29.73,10.0,NNE,3.5,-,N/A,,Overcast,30,2012-10-14 08:55:00
4:15 AM,44.6,44.6,100,29.71,10.0,NE,6.9,-,N/A,,Light Drizzle,40,2012-10-14 09:15:00
4:35 AM,44.6,44.6,100,29.71,7.0,ENE,5.8,-,N/A,Rain,Rain,70,2012-10-14 09:35:00
4:55 AM,44.6,44.6,100,29.71,7.0,NE,5.8,-,N/A,,Light Drizzle,50,2012-10-14 09:55:00
5:15 AM,44.6,44.6,100,29.70,10.0,NE,9.2,-,N/A,,Overcast,50,2012-10-14 10:15:00
5:35 AM,44.6,44.6,100,29.70,10.0,NE,6.9,-,N/A,,Drizzle,40,2012-10-14 10:35:00
6:15 AM,44.6,44.6,100,29.69,7.0,ENE,6.9,-,N/A,Rain,Heavy Rain,70,2012-10-14 11:15:00
6:35 AM,44.6,42.8,93,29.69,7.0,ENE,5.8,-,0.01,Rain,Rain,70,2012-10-14 11:35:00
6:55 AM,44.6,42.8,93,29.68,10.0,NE,8.1,-,0.01,,Light Drizzle,50,2012-10-14 11:55:00
7:15 AM,44.6,42.8,93,29.68,10.0,NE,6.9,-,N/A,,Overcast,40,2012-10-14 12:15:00
7:35 AM,44.6,42.8,93,29.68,10.0,NE,5.8,-,N/A,,Drizzle,50,2012-10-14 12:35:00
7:55 AM,44.6,42.8,93,29.69,7.0,Calm,Calm,-,N/A,Rain,Rain,0,2012-10-14 12:55:00
8:15 AM,42.8,42.8,100,29.68,5.0,NNE,4.6,-,0.01,Rain,Rain,20,2012-10-14 13:15:00
8:35 AM,44.6,42.8,93,29.68,10.0,NNE,8.1,-,0.02,,Light Drizzle,20,2012-10-14 13:35:00
8:55 AM,44.6,42.8,93,29.66,10.0,NNE,10.4,-,0.02,,Light Drizzle,30,2012-10-14 13:55:00
9:15 AM,42.8,42.8,100,29.66,10.0,NNE,4.6,9.2,N/A,Rain,Rain,30,2012-10-14 14:15:00
9:35 AM,42.8,42.8,100,29.66,10.0,NNE,6.9,-,0.02,Rain,Rain,20,2012-10-14 14:35:00
9:55 AM,42.8,42.8,100,29.66,10.0,NNE,11.5,16.1,0.03,Rain,Rain,20,2012-10-14 14:55:00
10:15 AM,42.8,42.8,100,29.65,10.0,NNE,9.2,-,0.02,Rain,Rain,30,2012-10-14 15:15:00
10:35 AM,42.8,42.8,100,29.65,10.0,NNE,12.7,18.4,0.03,Rain,Rain,30,2012-10-14 15:35:00
10:55 AM,42.8,41.0,93,29.64,10.0,NNE,11.5,19.6,0.06,Rain,Rain,20,2012-10-14 15:55:00
11:15 AM,42.8,41.0,93,29.64,10.0,NNE,10.4,-,0.02,Rain,Rain,30,2012-10-14 16:15:00
11:35 AM,42.8,41.0,93,29.63,10.0,NNE,8.1,-,0.05,Rain,Rain,20,2012-10-14 16:35:00
11:55 AM,42.8,41.0,93,29.63,7.0,NNE,10.4,-,0.09,Rain,Rain,20,2012-10-14 16:55:00
12:15 PM,42.8,41.0,93,29.61,10.0,North,10.4,16.1,0.02,Rain,Rain,10,2012-10-14 17:15:00
12:35 PM,42.8,41.0,93,29.61,10.0,North,10.4,17.3,0.03,Rain,Light Rain,10,2012-10-14 17:35:00
12:55 PM,42.8,41.0,93,29.61,10.0,North,9.2,17.3,0.03,Rain,Light Rain,10,2012-10-14 17:55:00
1:15 PM,42.8,41.0,93,29.61,10.0,North,11.5,17.3,N/A,Rain,Light Rain,10,2012-10-14 18:15:00
1:35 PM,42.8,42.8,100,29.61,10.0,North,6.9,16.1,N/A,,Light Drizzle,360,2012-10-14 18:35:00
1:55 PM,42.8,42.8,100,29.61,10.0,North,5.8,-,N/A,Rain,Light Rain,350,2012-10-14 18:55:00
2:15 PM,42.8,42.8,100,29.62,10.0,North,8.1,-,N/A,,Overcast,350,2012-10-14 19:15:00
2:35 PM,42.8,42.8,100,29.62,10.0,North,8.1,17.3,N/A,Rain,Light Rain,350,2012-10-14 19:35:00
2:55 PM,42.8,42.8,100,29.62,10.0,North,11.5,-,N/A,,Drizzle,350,2012-10-14 19:55:00
3:15 PM,42.8,42.8,100,29.63,10.0,North,9.2,-,N/A,Rain,Rain,350,2012-10-14 20:15:00
3:35 PM,42.8,42.8,100,29.63,10.0,NNW,8.1,-,N/A,Rain,Light Rain,340,2012-10-14 20:35:00
3:55 PM,42.8,42.8,100,29.63,10.0,North,10.4,16.1,N/A,Rain,Light Rain,360,2012-10-14 20:55:00
4:15 PM,44.6,42.8,93,29.64,10.0,North,9.2,-,N/A,Rain,Light Rain,350,2012-10-14 21:15:00
4:35 PM,44.6,42.8,93,29.64,10.0,NNW,8.1,-,N/A,Rain,Rain,330,2012-10-14 21:35:00
4:55 PM,42.8,42.8,100,29.65,10.0,NNW,10.4,18.4,N/A,,Light Drizzle,340,2012-10-14 21:55:00
5:15 PM,42.8,42.8,100,29.66,10.0,NNW,12.7,17.3,N/A,,Overcast,340,2012-10-14 22:15:00
5:35 PM,42.8,42.8,100,29.67,10.0,NNW,10.4,-,N/A,,Overcast,340,2012-10-14 22:35:00
5:55 PM,42.8,41.0,93,29.67,10.0,NNW,12.7,18.4,N/A,,Overcast,330,2012-10-14 22:55:00
6:15 PM,42.8,41.0,93,29.68,10.0,NNW,11.5,19.6,N/A,,Overcast,340,2012-10-14 23:15:00
6:35 PM,42.8,41.0,93,29.69,10.0,NNW,10.4,16.1,N/A,,Overcast,340,2012-10-14 23:35:00
6:55 PM,42.8,41.0,93,29.71,10.0,NNW,10.4,18.4,N/A,,Overcast,330,2012-10-14 23:55:00
7:15 PM,42.8,41.0,93,29.71,10.0,NNW,10.4,-,N/A,,Overcast,340,2012-10-15 00:15:00
7:35 PM,42.8,39.2,87,29.72,10.0,NNW,10.4,17.3,N/A,,Overcast,340,2012-10-15 00:35:00
7:55 PM,42.8,39.2,87,29.73,10.0,NNW,10.4,-,N/A,,Overcast,330,2012-10-15 00:55:00
8:15 PM,42.8,39.2,87,29.74,10.0,NNW,13.8,18.4,N/A,,Overcast,330,2012-10-15 01:15:00
8:35 PM,41.0,39.2,93,29.74,10.0,NNW,10.4,-,N/A,,Overcast,340,2012-10-15 01:35:00
8:55 PM,41.0,37.4,87,29.75,10.0,NNW,9.2,19.6,N/A,,Overcast,340,2012-10-15 01:55:00
9:15 PM,41.0,37.4,87,29.75,10.0,NNW,6.9,-,N/A,,Overcast,340,2012-10-15 02:15:00
9:35 PM,41.0,37.4,87,29.75,10.0,NNW,9.2,-,N/A,,Overcast,340,2012-10-15 02:35:00
9:55 PM,41.0,37.4,87,29.76,10.0,NNW,13.8,20.7,N/A,,Overcast,330,2012-10-15 02:55:00
10:15 PM,41.0,37.4,87,29.76,10.0,NNW,5.8,-,N/A,,Overcast,330,2012-10-15 03:15:00
10:35 PM,41.0,37.4,87,29.76,10.0,NNW,9.2,-,N/A,,Overcast,340,2012-10-15 03:35:00
10:55 PM,41.0,37.4,87,29.76,10.0,NNW,9.2,17.3,N/A,,Overcast,340,2012-10-15 03:55:00
11:15 PM,41.0,37.4,87,29.77,10.0,NNW,9.2,-,N/A,,Overcast,340,2012-10-15 04:15:00
11:35 PM,41.0,37.4,87,29.77,10.0,NNW,6.9,-,N/A,,Overcast,340,2012-10-15 04:35:00